Theta_e
310 310 310 310 310 310 310 310 310 310 310 310 310 310 311 311 311 311 311 312 312 312 313 313 313 313 314 314 314 314 314 314 315 314 314 314 314 314 314 315 315 315 315 315 315 317 317 317 317 316 316 316 316 316 317 319 319 319 324 324 321 326 326 325 326 318 317 323 320 314 314 315 316 316 315 316 316 315 316 315 316 316 316 317 317 317 317 317
310 310 310 310 310 310 310 310 310 310 310 310 311 311 311 311 311 312 312 313 313 313 314 314 314 314 314 315 315 315 315 315 315 315 314 315 315 314 314 315 315 315 315 315 315 316 317 317 316 316 315 315 315 316 317 318 318 321 324 321 322 327 322 317 318 314 314 318 316 315 314 313 315 315 314 316 315 314 315 315 315 315 316 316 317 316 317 317
310 310 310 310 310 310 310 310 310 310 310 310 311 311 311 311 312 312 313 313 313 314 314 314 314 314 314 315 315 314 315 315 314 315 315 315 316 315 314 314 315 315 315 315 315 315 316 316 316 316 315 315 316 317 318 318 319 319 318 322 328 323 315 313 314 314 315 316 314 314 314 312 315 315 313 314 314 314 314 314 313 314 316 316 316 316 316 316
310 310 310 310 310 310 310 310 310 310 310 311 311 311 311 312 312 312 313 313 313 313 314 314 314 314 314 314 314 314 314 315 315 316 315 315 316 315 314 314 314 315 316 315 315 314 315 316 316 315 315 315 314 316 317 318 319 318 317 325 326 315 315 317 315 316 316 315 313 313 313 312 314 315 313 313 314 315 314 314 315 315 316 316 316 316 316 316
310 310 310 310 311 310 310 310 310 311 310 311 311 311 311 311 312 312 313 313 313 314 314 314 314 314 314 314 314 314 314 316 317 316 315 315 316 316 315 315 314 314 315 316 316 315 314 315 316 314 315 315 314 316 318 317 318 318 317 320 318 312 316 318 316 317 316 314 314 312 313 314 315 314 313 313 314 316 315 316 316 316 316 316 316 316 316 315
310 310 310 310 311 311 311 311 311 311 311 311 311 311 311 312 312 312 312 313 313 313 314 313 314 314 314 314 314 314 313 315 316 315 314 314 316 317 315 315 314 314 314 315 316 315 314 314 316 315 314 313 315 317 317 316 316 318 318 316 316 315 315 317 317 317 316 315 313 313 315 314 313 313 314 312 313 316 317 316 316 316 316 315 315 315 315 315
310 310 310 310 310 311 311 311 311 311 311 311 311 311 311 311 312 312 312 312 313 313 313 313 314 314 314 314 314 314 313 314 314 314 314 314 315 316 315 315 315 315 314 314 315 315 314 313 315 315 314 313 314 315 315 315 315 318 319 315 315 316 315 317 317 316 316 315 314 315 314 312 313 314 313 312 314 317 317 316 316 316 316 315 315 315 315 315
311 311 311 311 311 311 311 311 311 311 312 312 312 312 312 312 312 312 312 312 312 312 313 313 313 313 313 314 314 313 313 314 314 314 314 314 315 315 314 315 315 315 315 314 314 315 314 313 315 314 314 314 313 314 313 313 314 317 319 315 314 315 315 316 316 315 316 315 316 314 312 313 314 313 311 312 315 317 317 316 316 316 316 315 315 315 316 315
312 312 312 312 312 312 312 313 313 313 313 313 313 313 313 313 313 313 313 313 313 313 313 313 313 314 314 314 314 313 313 314 314 315 314 315 315 314 314 315 314 315 315 315 314 315 315 313 314 314 313 313 313 313 312 314 315 315 316 315 313 314 315 315 314 314 314 314 314 313 312 314 314 313 312 313 316 316 316 316 316 315 315 315 315 315 316 315
312 312 312 312 312 312 312 313 313 313 313 314 314 314 314 314 314 314 314 314 314 314 315 314 314 314 314 315 314 313 314 315 315 315 314 315 315 315 315 314 314 315 315 315 314 314 314 314 313 313 313 313 312 312 312 314 315 314 313 313 312 312 313 313 312 313 312 312 312 313 314 314 312 312 313 314 316 315 315 315 315 314 314 315 315 315 315 315
312 312 312 311 311 311 311 312 312 312 312 313 313 313 313 313 313 314 314 314 314 315 314 315 315 314 315 314 314 313 315 315 315 315 315 315 315 315 315 315 314 314 315 315 314 314 313 313 313 313 313 313 312 312 312 313 313 312 311 312 312 311 311 311 310 311 311 312 312 312 313 312 311 312 313 315 315 315 314 315 315 315 315 315 315 315 316 315
315 315 315 315 315 314 314 313 313 313 313 313 313 313 313 313 313 313 313 313 313 313 313 313 313 313 313 313 313 315 315 315 315 315 315 315 315 315 315 315 314 314 315 314 314 314 312 312 311 312 313 312 312 312 312 312 312 312 311 313 314 312 312 312 311 311 310 312 312 311 312 314 314 313 315 315 315 314 313 314 314 315 315 315 316 316 316 316
318 318 318 318 318 318 318 318 318 318 318 318 318 318 318 318 318 317 317 316 316 315 314 313 312 312 311 311 314 315 315 315 315 315 315 315 315 315 315 314 314 314 314 314 314 313 312 311 310 312 313 312 313 312 311 311 310 312 311 312 314 313 314 312 311 311 310 311 312 311 313 318 320 315 314 315 314 313 312 313 314 315 315 315 316 316 316 316
317 317 317 317 317 317 318 318 318 318 318 318 318 318 318 319 319 319 319 319 320 319 318 317 314 313 311 312 313 313 314 314 313 314 314 315 314 314 314 314 314 314 314 314 314 314 312 311 311 311 311 312 312 311 312 313 315 314 310 312 314 314 316 313 310 309 310 311 311 312 314 316 318 315 314 315 313 312 312 313 314 315 315 315 315 315 316 316
313 313 313 313 313 313 313 313 313 313 313 313 313 313 313 313 314 315 315 315 317 318 320 319 318 316 312 312 314 313 313 313 313 314 314 314 314 314 314 314 314 314 314 314 314 313 312 312 312 312 312 312 312 314 317 318 323 320 312 315 317 314 316 314 310 308 311 312 309 312 315 314 314 314 314 314 312 312 312 312 314 314 314 315 315 315 315 315
310 310 310 310 310 310 310 310 310 310 310 310 309 310 310 310 311 311 311 312 312 313 316 318 318 316 313 314 316 315 314 314 314 313 314 314 314 314 313 314 314 314 314 313 313 313 312 312 312 312 312 311 314 320 322 318 323 322 313 315 318 315 314 314 313 308 308 311 310 311 314 315 314 313 314 314 311 310 311 312 313 313 314 314 314 314 314 314
309 308 308 308 308 308 308 308 308 308 308 308 308 308 309 309 309 309 310 310 311 311 313 315 316 314 314 316 317 317 317 316 314 313 314 314 315 315 314 314 314 314 314 313 313 312 312 312 312 314 313 311 314 319 319 316 318 318 313 315 316 315 313 313 316 311 306 311 313 312 311 312 313 311 312 314 312 310 309 310 311 312 313 313 313 313 313 314
309 309 308 308 307 308 307 307 307 307 308 309 309 309 309 309 310 310 310 311 311 312 313 314 314 314 317 317 317 318 318 315 314 314 314 314 315 315 315 314 314 314 313 312 312 311 312 310 311 315 315 312 313 314 316 316 316 315 315 316 315 314 313 312 314 312 310 312 312 312 311 310 311 310 309 312 313 311 309 310 310 310 311 312 312 312 313 314
313 311 310 309 308 308 308 308 309 310 312 312 312 312 312 311 311 312 314 313 313 314 316 315 315 317 319 317 316 317 315 314 314 314 315 315 315 315 315 314 313 313 312 312 313 310 311 311 311 314 315 313 313 312 314 314 314 314 314 314 313 312 312 312 312 310 310 311 311 311 310 310 310 310 309 310 311 310 310 310 310 310 310 310 311 312 313 314
317 316 313 311 311 311 311 312 314 316 317 317 317 316 313 311 312 313 313 313 313 314 314 314 315 316 316 316 317 316 315 314 314 314 315 315 315 314 314 313 312 312 311 316 316 309 309 313 314 315 314 313 312 312 312 312 312 312 312 313 312 311 310 311 311 310 309 310 311 312 311 310 310 310 309 309 309 309 308 309 310 310 310 310 311 311 312 313
319 319 317 315 315 315 316 317 319 320 320 320 320 318 312 310 312 313 312 314 316 315 314 314 314 313 314 314 315 315 315 314 315 315 315 314 314 314 314 312 313 313 311 312 313 309 309 313 314 314 313 313 313 312 311 311 311 312 312 312 311 311 311 310 311 311 309 309 311 312 311 310 310 310 310 309 309 309 309 309 310 311 311 311 311 311 312 313
320 320 319 318 318 319 320 320 321 321 321 321 321 319 314 312 312 312 311 312 316 318 317 317 315 313 315 316 314 314 315 314 314 315 314 314 314 314 313 312 314 315 312 310 311 312 311 312 313 311 311 312 313 312 311 312 312 312 311 312 312 311 311 311 311 312 310 310 314 314 311 310 310 311 310 310 310 310 310 310 310 311 311 311 312 312 312 314
322 321 321 320 320 321 321 322 322 322 322 322 322 320 318 316 314 311 311 311 314 319 320 320 318 316 317 318 314 313 313 313 313 314 314 313 313 313 312 312 314 315 314 313 314 314 315 315 312 308 309 311 312 312 312 312 311 312 312 312 312 311 312 312 313 315 313 310 313 313 310 310 311 310 310 310 309 310 310 310 311 311 311 312 314 314 312 312
324 322 321 321 321 321 322 322 322 322 322 322 323 321 319 318 315 313 313 312 313 317 319 320 317 315 316 315 314 313 312 312 313 313 314 313 313 313 312 311 313 314 313 312 313 313 315 315 311 309 310 311 312 312 312 312 312 313 313 312 312 312 312 312 313 315 313 313 315 313 311 313 314 313 314 312 310 310 309 309 310 310 313 314 314 315 313 312
324 323 322 321 322 322 322 322 322 322 322 322 322 321 320 318 314 314 313 314 317 316 315 316 314 313 314 313 313 312 311 312 312 312 313 313 313 313 311 311 312 314 313 312 312 312 312 311 309 312 313 312 312 312 313 314 313 312 314 313 312 312 312 312 313 312 313 318 317 313 314 317 317 317 319 318 317 316 311 311 311 311 314 313 311 314 314 313
323 323 323 322 323 322 322 322 322 322 322 322 322 321 321 318 315 316 313 316 323 319 313 313 312 312 311 311 312 311 313 314 311 312 312 313 313 312 312 311 311 313 313 311 311 311 312 310 310 314 315 314 313 312 314 314 312 313 318 319 313 311 313 313 313 312 316 319 313 313 317 317 316 317 320 321 323 322 317 316 313 310 312 312 310 313 314 315
324 323 323 323 323 323 323 323 322 323 323 323 322 322 321 318 315 314 314 321 326 318 313 313 311 312 311 310 311 311 315 315 310 311 311 312 313 311 313 313 310 310 309 310 312 313 313 311 311 312 312 314 314 312 313 312 312 315 319 321 318 314 315 314 312 312 316 317 313 314 316 315 316 315 317 319 318 319 317 316 313 309 310 311 312 313 314 316
325 325 325 324 323 323 323 323 323 323 323 323 323 322 320 318 316 313 318 328 327 316 314 312 310 312 311 310 311 310 312 311 309 311 310 311 312 310 312 313 312 312 308 310 315 313 312 314 314 313 312 314 313 314 315 312 313 317 315 316 317 316 315 313 315 315 314 315 316 314 314 317 318 314 316 316 315 318 317 314 313 310 310 311 313 314 314 316
326 325 326 325 323 324 323 324 324 323 324 323 323 322 318 317 315 313 320 328 324 315 314 312 311 312 310 310 311 309 309 309 309 311 310 311 312 310 312 311 310 312 309 309 314 311 311 313 311 313 315 314 313 315 317 316 314 313 312 314 316 318 317 314 316 318 317 317 317 315 315 317 319 317 319 316 315 321 318 315 314 311 310 312 314 315 315 316
324 324 325 325 324 324 323 324 324 324 324 323 323 322 317 316 315 317 324 325 322 318 313 310 312 310 310 312 312 309 309 310 309 310 309 310 311 309 310 309 308 313 313 310 313 312 309 308 307 311 313 312 314 312 310 312 311 308 311 316 318 318 317 317 318 318 317 319 318 318 317 317 319 319 320 320 319 320 317 316 316 314 311 312 315 315 315 317
322 322 323 324 325 324 323 323 324 324 324 323 324 321 316 317 319 324 328 322 320 321 313 311 313 312 313 314 314 312 310 310 308 309 311 311 311 309 309 310 310 315 318 313 313 312 309 308 310 312 309 308 313 312 307 307 306 309 316 318 317 319 319 320 320 317 317 321 320 317 315 316 318 317 317 319 317 316 316 317 321 321 315 312 314 316 314 316
320 320 321 323 324 324 324 323 323 324 324 323 323 318 316 321 323 325 326 322 323 322 314 313 314 314 316 314 316 316 312 311 308 309 314 314 314 313 312 315 315 316 320 318 317 316 314 313 311 310 309 308 313 315 312 310 309 311 316 316 315 318 319 320 321 318 318 320 316 313 313 314 316 315 314 315 314 315 314 312 314 317 313 311 315 316 315 316
317 319 320 321 322 323 324 323 324 324 323 322 320 316 317 323 325 324 325 325 324 317 312 314 313 313 315 313 318 317 311 314 312 309 312 312 312 316 316 315 315 315 316 317 318 318 318 315 310 309 311 310 312 314 315 316 313 312 314 316 317 318 319 321 322 318 317 318 313 310 314 315 315 316 318 316 314 312 311 309 310 310 310 312 314 314 314 315
315 316 318 320 321 322 323 323 323 322 322 320 319 318 320 323 325 324 324 325 323 316 312 314 314 314 314 314 319 317 313 317 315 309 311 311 312 319 319 314 311 312 313 313 315 317 317 317 315 314 313 312 311 311 315 320 315 311 314 317 317 321 323 322 323 321 318 319 314 309 314 319 317 316 317 316 311 308 308 310 311 310 311 312 312 313 315 315
313 314 315 317 319 321 321 322 322 321 321 319 317 319 323 324 324 324 324 324 322 318 314 313 314 316 318 318 318 315 313 317 315 311 312 314 315 321 323 318 312 311 313 314 316 316 314 317 318 313 309 310 310 310 314 320 316 311 314 317 316 319 321 318 320 320 316 317 316 312 315 320 317 314 314 313 312 308 308 309 308 309 312 311 311 313 315 315
311 312 313 314 316 318 320 321 322 321 319 318 317 320 322 322 324 325 322 318 316 316 316 316 317 318 320 321 319 315 312 313 314 313 313 314 315 317 320 320 314 310 311 314 317 317 314 318 318 311 308 309 308 307 310 313 315 313 313 316 316 315 316 316 318 318 315 315 317 315 316 317 316 316 315 314 316 314 312 311 307 306 309 310 310 313 314 314
309 310 311 312 313 315 317 319 320 320 318 317 319 321 321 320 321 323 319 313 312 316 318 319 319 319 320 321 321 317 313 313 314 314 316 316 314 314 317 317 312 309 310 312 314 316 315 316 316 313 313 310 304 305 308 307 310 316 317 316 314 312 314 316 317 318 317 316 317 315 317 316 316 319 317 315 316 316 316 316 312 307 306 306 310 313 313 312
308 309 310 310 311 312 315 316 318 318 316 316 318 320 321 319 317 316 314 311 313 319 320 320 320 321 321 322 323 318 314 317 317 315 318 319 315 315 317 316 311 308 309 309 311 316 315 314 315 314 314 312 308 309 313 308 307 312 314 313 313 315 316 316 317 318 317 316 317 316 316 316 315 316 316 315 315 314 315 316 316 315 309 306 310 312 312 313
306 307 308 309 310 312 313 314 317 317 315 316 318 318 319 319 316 313 314 313 315 319 320 321 322 322 322 322 323 320 318 320 319 317 320 321 318 316 315 315 313 309 307 308 311 316 316 314 315 315 312 313 314 314 315 314 311 309 309 311 313 315 315 316 317 318 317 317 318 318 318 317 317 316 315 315 315 315 315 314 316 317 310 306 309 311 312 314
305 306 308 310 311 312 312 313 315 316 315 317 318 317 317 317 315 314 315 314 315 317 320 322 322 321 321 322 321 320 320 320 320 319 320 321 321 319 317 316 315 312 309 309 312 315 316 315 315 316 314 313 315 315 314 315 315 312 311 313 313 312 314 315 315 316 316 317 318 319 319 319 318 316 315 315 315 315 315 314 315 313 308 307 310 312 313 314
304 306 308 309 311 313 313 314 314 314 315 316 316 316 316 316 314 314 314 314 314 315 316 319 321 320 319 320 319 319 319 320 321 320 319 320 320 320 319 316 316 316 313 312 314 315 315 315 316 316 315 314 314 315 314 313 314 313 313 314 313 313 316 316 315 316 316 316 317 318 317 318 319 317 315 315 315 315 314 314 313 308 306 310 312 312 313 312
304 306 307 309 311 313 314 314 314 313 314 315 315 315 315 315 314 314 313 313 313 313 313 316 318 318 317 317 318 318 319 319 319 318 318 319 318 318 317 315 314 315 314 314 316 315 314 315 315 315 314 314 314 314 314 313 313 313 313 314 315 314 314 316 316 316 316 315 315 316 315 318 320 318 315 315 315 314 313 312 311 307 307 310 311 309 309 308
303 305 308 310 311 313 315 315 314 314 314 314 314 314 314 314 314 314 313 312 313 313 313 315 315 315 316 316 316 317 318 317 317 318 318 317 317 316 314 313 313 312 314 316 316 313 312 314 315 314 314 314 315 316 315 313 312 314 314 314 314 313 313 315 314 314 315 315 314 315 315 316 322 321 316 316 315 312 312 311 310 308 307 306 305 304 304 303
301 302 304 309 312 313 314 315 315 315 314 314 313 314 314 313 313 313 313 312 313 314 314 315 313 313 315 315 315 316 317 316 315 316 316 316 316 314 310 310 312 312 312 313 312 312 313 314 315 315 315 314 315 316 314 313 313 314 314 313 312 312 313 313 312 312 313 313 313 315 314 315 323 324 318 317 316 314 312 309 306 304 302 300 300 299 300 300
300 300 300 304 309 310 311 313 314 314 314 314 314 314 313 313 313 313 313 312 312 312 313 314 312 311 312 313 313 313 314 314 314 315 315 315 314 309 305 307 309 308 308 307 307 310 312 313 314 315 315 315 314 313 313 314 314 313 313 314 313 313 313 313 313 313 313 313 313 314 313 313 317 319 317 317 316 314 310 304 300 299 298 297 297 296 297 298
299 301 301 301 304 305 306 309 310 312 312 313 313 313 313 313 313 312 312 312 312 311 311 312 311 310 311 311 311 312 312 312 312 313 313 314 314 308 303 304 305 304 305 305 304 307 309 310 313 313 313 314 314 313 313 314 313 313 313 314 314 313 312 312 313 313 313 313 313 313 314 313 313 314 314 314 312 309 303 298 297 296 295 295 295 295 296 296
298 300 302 303 303 303 304 306 307 309 310 311 312 312 312 312 312 311 311 311 311 311 310 310 311 311 311 312 312 311 312 312 311 311 311 310 310 306 302 304 303 302 303 303 302 305 308 308 310 311 311 312 312 311 311 311 311 311 312 312 312 312 311 311 311 312 312 313 314 314 314 314 314 314 312 306 303 302 298 296 296 295 294 294 294 295 296 295
298 299 300 301 302 302 304 304 303 305 306 308 309 310 310 310 310 310 310 309 310 310 310 310 311 311 311 311 311 311 312 312 311 310 309 306 304 305 305 305 303 301 301 301 302 305 307 307 308 309 309 310 309 308 308 309 309 310 310 310 311 311 311 311 311 311 312 312 313 313 313 313 313 309 303 298 297 298 296 294 294 294 293 294 294 294 295 294
296 297 297 298 298 299 301 301 300 301 303 305 306 307 308 308 308 308 308 309 309 309 310 311 310 307 305 306 308 309 310 310 310 308 306 303 303 304 305 305 304 301 299 299 300 303 306 307 307 307 307 306 306 306 307 307 307 308 309 309 310 310 310 310 310 311 311 311 312 311 311 312 307 299 296 295 295 296 295 293 293 293 293 293 293 293 294 294
295 296 296 297 296 296 297 298 298 299 301 303 305 305 306 307 307 307 306 307 309 309 309 309 305 302 301 302 304 305 305 304 305 304 301 301 302 302 301 303 303 300 298 299 301 303 305 306 305 305 304 304 305 305 306 306 307 307 308 308 309 309 309 308 308 309 309 310 310 309 311 311 302 294 294 295 293 294 294 293 293 292 292 292 292 293 293 293
294 295 295 295 295 296 297 296 297 299 300 302 304 305 306 306 304 303 304 304 304 306 305 302 300 299 300 301 301 302 301 299 299 300 298 298 300 300 299 299 299 298 298 299 301 302 303 302 302 303 303 303 303 304 304 304 305 305 305 305 305 305 305 305 306 308 308 308 309 309 310 306 297 293 294 294 293 293 294 293 293 292 292 292 292 292 292 293
293 293 294 294 294 295 295 295 296 298 299 299 301 301 302 301 299 299 303 303 300 299 298 297 298 299 299 300 300 299 298 297 296 297 296 296 297 297 297 297 297 298 298 297 299 300 300 300 300 301 301 302 302 303 303 303 302 302 302 303 304 304 304 305 306 305 303 303 305 306 303 297 294 293 293 293 293 293 293 293 293 292 292 292 292 292 292 292
Wind_Speed
7 7 7 7 7 7 7 7 6 6 6 6 6 5 4 4 4 4 4 4 5 5 6 6 7 8 8 9 10 10 12 12 14 16 12 7 8 7 8 10 11 9 8 8 8 7 7 6 7 6 6 6 5 5 5 6 7 5 3 2 3 3 4 6 8 7 4 3 5 4 5 2 7 10 9 10 12 15 18 21 20 20 23 24 26 26 26 26
8 7 7 7 7 7 7 7 7 6 6 6 6 6 5 5 5 4 4 5 5 6 7 7 8 9 10 11 11 12 14 14 17 14 5 7 9 8 6 7 11 12 10 9 8 8 7 6 7 8 8 7 4 5 6 6 8 5 3 2 4 6 6 7 9 8 6 6 7 10 11 6 10 12 8 6 10 11 12 17 18 21 26 26 27 27 28 28
8 8 8 8 8 7 8 7 7 7 7 7 7 7 7 6 6 6 6 6 7 8 8 9 10 11 12 13 13 15 15 17 17 5 4 10 9 7 7 4 7 11 11 10 9 8 8 7 7 8 9 7 5 5 5 5 7 6 3 2 7 8 6 9 13 12 12 12 9 12 12 8 15 14 7 6 9 9 9 16 16 19 27 26 25 26 27 28
9 9 9 8 8 8 8 8 8 8 8 9 9 9 9 9 8 8 9 8 9 9 10 11 12 13 14 14 15 16 16 18 10 4 6 14 7 6 7 5 4 7 10 11 10 10 9 8 8 9 9 6 4 4 5 7 7 5 6 5 6 5 4 12 16 16 17 15 11 12 9 10 19 16 11 8 7 8 13 21 20 21 26 24 22 23 25 27
10 10 10 10 10 9 9 9 9 10 10 10 10 10 11 10 10 11 10 11 11 11 12 13 13 14 15 16 16 16 15 11 1 4 11 15 7 6 6 6 5 4 8 11 12 11 10 9 9 9 7 4 3 3 5 11 9 4 7 12 9 5 4 11 13 12 13 13 11 10 7 13 19 15 16 11 6 13 21 24 24 27 28 24 24 25 26 28
11 11 11 11 11 11 11 11 11 11 11 11 12 12 12 12 12 12 12 13 13 13 14 14 15 15 16 17 17 17 11 3 4 7 16 15 8 8 7 8 7 6 7 9 12 12 11 10 10 9 6 2 5 6 5 11 12 5 6 12 16 12 10 14 13 11 12 11 10 10 12 18 17 17 19 14 17 29 34 31 30 34 34 29 28 29 31 31
11 12 12 12 12 12 13 13 13 13 13 13 13 14 14 14 14 14 14 14 15 15 15 15 16 16 17 18 19 18 10 10 15 17 17 12 9 9 9 11 10 10 9 9 11 12 13 12 13 10 5 2 5 8 7 8 11 7 5 7 14 16 17 23 20 15 17 17 18 18 17 20 18 15 14 14 26 40 41 38 37 38 36 33 33 33 34 33
12 12 13 13 13 13 14 14 14 14 15 15 15 16 16 16 16 16 16 16 16 16 17 17 17 17 18 19 20 18 15 18 19 16 13 9 9 12 13 14 13 12 10 10 11 12 13 14 16 11 4 4 6 6 5 5 6 7 8 8 8 11 17 24 22 20 21 23 25 20 17 26 28 19 16 23 37 42 39 39 35 32 30 29 30 29 28 29
13 14 14 14 14 15 15 16 16 16 17 17 17 18 18 18 18 18 18 18 18 18 18 18 18 19 18 20 20 16 19 20 15 11 10 10 14 17 18 17 16 14 12 12 11 12 13 14 16 14 8 7 6 5 4 4 4 8 13 11 7 10 17 21 21 21 20 22 21 11 14 30 28 18 18 25 34 32 28 30 26 22 23 24 25 25 25 26
14 15 15 15 16 16 17 17 18 18 19 19 19 19 20 20 20 21 21 20 20 20 20 19 20 20 19 21 17 12 18 19 13 14 15 17 20 20 21 20 18 16 14 14 13 13 14 13 11 11 11 8 5 6 5 6 5 6 9 11 12 15 20 19 18 22 18 18 20 12 12 28 22 8 10 20 27 26 24 28 26 22 26 27 27 27 26 27
15 15 15 16 16 17 18 18 19 20 20 20 20 21 21 21 22 22 22 22 22 21 21 20 20 20 20 22 18 15 23 23 19 22 21 22 23 22 22 21 19 17 14 14 13 13 13 13 10 5 6 5 4 5 7 8 7 7 6 9 14 14 19 18 16 21 15 13 20 17 11 20 15 3 16 34 34 27 26 31 31 29 31 32 30 30 29 30
15 16 16 16 17 18 18 19 20 20 21 21 21 21 22 22 23 23 24 23 23 22 21 20 19 20 20 22 27 27 29 27 25 25 23 23 24 24 24 22 21 16 14 14 12 13 11 13 13 10 7 5 2 1 5 6 5 8 4 5 12 8 14 17 14 17 12 7 11 11 4 10 8 11 30 42 34 26 24 29 33 33 33 31 30 30 28 29
16 17 17 17 18 19 19 20 21 21 22 22 22 22 22 23 24 24 24 23 23 22 21 19 19 20 17 22 32 31 27 27 26 25 24 25 26 26 26 24 21 17 14 14 13 13 11 11 12 15 13 8 3 3 4 4 4 8 1 0 7 7 9 9 6 6 7 5 6 9 2 7 9 21 37 38 30 24 22 27 32 32 31 29 28 29 29 29
16 17 17 17 18 19 20 20 21 22 22 21 22 22 22 23 24 24 24 23 23 22 21 19 18 18 16 23 31 30 27 28 27 27 26 26 26 27 27 25 22 17 14 14 14 14 12 9 9 13 15 13 10 7 5 6 4 5 1 1 3 3 6 6 0 3 2 4 12 11 5 9 9 21 39 36 25 20 20 25 29 30 31 30 30 32 32 33
14 15 15 16 16 17 18 19 19 19 19 20 20 20 21 21 22 22 21 21 21 20 20 19 19 16 14 22 29 26 26 27 25 25 24 23 25 26 25 22 19 16 13 14 14 14 11 8 8 9 9 12 11 4 3 4 3 2 2 4 2 3 6 10 8 7 8 5 11 11 5 9 8 20 36 31 18 16 19 24 26 30 33 34 36 37 37 39
11 12 13 13 14 15 16 16 17 17 18 18 18 19 19 19 20 20 19 19 18 18 18 17 18 14 9 16 23 23 26 26 24 23 22 23 23 23 23 18 14 13 13 13 13 12 9 7 8 8 6 7 5 2 3 4 4 3 2 5 4 5 4 7 11 9 9 3 5 8 6 7 7 15 28 25 18 14 16 23 27 32 37 38 41 41 41 44
10 11 12 12 13 14 15 15 15 16 16 17 18 18 18 19 18 18 18 17 16 16 15 14 13 10 10 16 21 26 27 23 21 21 21 22 21 21 20 16 13 12 12 12 12 9 9 9 6 5 4 2 2 5 2 2 5 4 2 4 5 7 6 5 9 8 3 6 5 7 8 12 10 11 19 25 26 20 17 26 31 34 38 42 43 42 44 46
10 10 11 11 12 13 13 14 14 14 15 15 17 17 18 18 17 16 16 15 13 10 10 10 7 3 10 17 17 19 19 16 15 14 16 18 18 18 16 14 12 11 9 8 9 10 10 7 4 1 1 1 2 5 3 6 8 7 5 5 4 5 7 7 8 7 3 2 4 5 9 15 14 13 19 30 34 31 29 33 35 36 38 41 42 42 45 48
9 9 10 10 11 12 12 12 12 13 14 14 15 17 17 16 14 13 11 9 7 5 5 9 10 4 7 11 13 14 15 15 14 13 15 15 14 14 12 11 10 11 9 4 6 11 10 4 4 2 2 7 8 8 11 14 10 8 6 6 7 7 7 7 10 9 4 4 5 9 15 14 15 15 17 28 32 31 37 39 35 34 34 36 38 42 46 49
9 9 9 10 11 12 12 12 13 13 15 15 15 16 13 11 9 7 8 10 12 12 13 14 16 17 17 18 19 18 18 19 18 18 18 15 12 11 12 11 9 9 7 5 5 7 9 5 3 6 11 14 12 11 14 12 4 4 4 6 8 8 9 9 12 11 1 1 7 11 17 16 16 15 14 26 29 22 28 34 34 33 31 33 36 41 45 49
11 10 9 9 10 11 12 13 13 14 16 17 17 14 9 8 6 6 11 16 19 20 22 24 24 27 28 27 26 23 19 18 20 21 19 16 12 9 11 12 8 5 4 5 4 3 5 6 7 14 15 10 7 9 10 7 5 6 6 7 8 6 11 12 13 14 0 0 7 9 17 17 15 16 15 22 22 18 23 26 31 35 33 34 35 40 46 49
12 12 11 10 10 11 12 13 14 14 15 16 16 14 11 11 9 10 12 13 22 25 24 26 29 33 33 31 32 31 21 15 19 22 18 16 14 10 10 11 6 3 4 4 3 1 3 5 13 18 10 0 1 5 5 6 8 8 5 6 7 5 10 10 10 11 2 1 6 8 16 15 13 16 16 20 20 23 28 25 29 36 38 40 39 41 46 48
13 13 12 11 11 12 12 12 14 13 14 14 14 14 14 14 13 14 12 9 17 24 24 28 31 35 34 32 34 33 24 17 18 20 19 16 16 12 11 10 5 3 5 6 7 5 4 7 15 17 7 2 5 2 4 3 4 6 6 6 8 6 7 7 5 7 4 3 7 11 16 12 12 15 16 23 25 25 31 30 32 38 42 46 46 45 43 42
13 13 13 12 12 13 12 12 13 12 12 13 13 13 14 16 15 16 13 8 9 14 22 28 26 27 29 27 27 25 22 19 16 14 16 18 15 9 8 9 5 3 6 11 12 10 9 8 9 10 7 7 8 6 5 5 5 8 8 7 10 11 10 9 5 7 6 5 5 8 14 10 8 10 10 13 14 16 24 28 30 39 47 48 46 48 44 38
14 12 13 13 13 13 13 13 12 10 12 13 12 12 14 15 14 15 12 6 6 7 13 17 14 13 16 16 16 14 12 13 14 13 13 16 17 8 4 8 6 5 9 10 8 10 10 8 4 6 6 9 8 7 7 7 8 7 7 11 16 14 11 10 7 7 5 5 5 5 9 9 4 7 7 5 4 7 12 14 22 37 45 39 33 42 43 37
16 14 14 15 15 14 14 12 10 11 12 12 11 11 13 13 12 13 9 3 5 4 4 5 4 3 4 5 7 7 3 5 9 15 15 15 19 12 3 5 4 3 7 6 3 4 5 6 6 7 6 7 6 7 8 10 8 8 6 12 15 10 8 9 7 4 1 4 3 4 1 10 5 4 7 7 5 8 10 11 19 29 34 28 26 34 38 35
17 15 14 16 16 16 14 13 12 12 12 12 12 12 12 10 10 11 7 3 5 1 4 3 3 1 1 3 8 10 3 2 1 7 15 15 17 13 5 4 2 1 4 3 2 4 3 3 4 5 5 6 5 7 7 9 6 7 5 8 9 8 8 7 4 4 4 3 4 2 5 7 12 4 6 7 7 9 13 14 16 19 23 28 30 33 33 33
19 17 16 17 17 16 16 15 14 11 11 13 13 12 10 8 8 8 4 3 4 3 3 2 4 2 0 7 12 7 1 1 3 1 9 12 13 10 4 5 5 3 4 4 4 4 3 4 6 6 5 4 7 7 6 10 6 7 3 5 6 6 6 6 5 4 2 4 4 4 5 2 12 6 3 2 5 8 14 15 14 13 19 29 33 33 30 28
21 19 18 17 17 17 18 18 15 12 12 13 11 10 7 5 6 6 3 3 2 3 1 2 3 1 3 7 9 4 3 4 2 3 5 7 12 7 1 4 6 4 4 6 7 6 0 3 6 8 6 6 8 4 7 11 6 4 3 5 4 3 3 5 4 3 3 3 5 6 6 2 11 7 3 3 3 7 10 11 10 9 17 28 29 29 25 20
21 20 19 19 20 20 21 21 17 13 12 11 9 8 4 2 3 2 4 5 1 1 1 2 2 1 3 5 1 4 2 2 2 5 4 4 9 7 0 1 3 2 3 4 6 8 4 1 2 5 6 6 4 2 3 7 3 1 5 4 6 4 4 4 1 3 3 5 6 9 11 6 7 5 3 3 4 5 5 8 8 7 13 20 22 26 23 20
21 21 20 21 24 23 22 22 18 15 14 12 10 7 2 0 2 3 8 2 1 1 2 2 1 1 4 3 1 2 1 2 2 6 3 3 4 3 1 0 1 2 3 4 5 6 4 2 2 5 7 5 5 3 0 1 3 3 3 2 3 4 4 5 4 3 2 7 5 9 11 8 7 5 1 4 6 5 5 7 10 8 10 17 24 26 24 23
21 21 20 22 25 25 24 23 19 17 17 14 11 5 2 1 2 7 6 3 2 2 2 1 1 2 2 2 1 2 1 2 2 4 3 2 3 3 3 4 3 1 4 3 3 5 3 5 3 1 5 7 5 2 3 3 3 4 3 2 0 4 3 3 3 1 3 7 5 7 7 4 10 9 4 9 13 10 8 8 10 9 12 22 28 25 22 25
21 20 20 21 23 25 25 24 21 20 18 12 7 3 4 2 5 5 3 2 2 1 1 1 2 2 2 1 2 3 1 3 3 3 2 3 2 3 5 5 5 2 4 2 2 4 4 5 1 2 4 8 10 5 3 2 4 7 5 5 4 2 2 4 4 2 5 6 2 3 4 3 9 7 6 11 13 11 7 9 14 16 18 26 30 27 25 28
22 21 22 21 21 23 23 23 22 20 18 12 6 3 2 7 6 1 2 5 3 2 2 2 3 2 0 2 3 3 2 3 3 4 1 2 1 3 4 4 5 3 2 2 2 2 4 7 3 4 2 6 11 9 5 4 4 6 5 5 5 5 4 4 4 4 6 4 2 1 3 4 5 3 5 9 9 12 13 14 16 18 22 26 25 24 27 32
23 23 23 22 22 21 20 22 22 20 18 12 5 2 5 8 5 1 3 4 2 2 3 2 3 1 3 3 3 2 4 4 2 4 2 2 3 3 3 4 6 5 3 3 2 2 4 8 5 2 1 5 6 4 2 6 2 3 3 4 3 5 5 2 4 5 3 2 2 2 4 5 5 7 9 8 10 13 15 17 15 17 24 23 21 25 30 33
24 24 24 24 24 21 19 20 20 19 19 12 4 4 9 7 4 3 2 1 1 1 2 3 2 1 4 3 3 3 1 2 0 1 2 3 3 4 4 3 6 9 7 5 2 1 2 5 4 2 2 1 1 4 2 2 2 1 3 3 4 4 5 2 4 1 1 4 5 5 8 6 5 10 10 7 8 8 7 10 11 16 23 21 22 29 29 25
24 24 25 27 24 20 19 19 17 19 20 11 4 7 7 4 5 5 2 1 1 2 2 2 2 2 3 2 2 3 1 0 1 1 2 2 3 4 5 4 5 10 10 5 2 2 3 3 2 2 1 3 2 4 4 0 3 3 2 5 3 2 3 2 2 2 2 7 6 7 12 10 6 8 7 7 12 12 8 7 8 11 15 16 20 23 20 19
23 22 25 28 25 21 21 18 16 19 16 7 7 10 4 3 5 5 4 3 1 2 2 4 4 2 2 3 2 1 1 1 0 0 1 2 3 4 3 3 4 7 9 6 1 2 1 2 3 2 2 4 4 3 4 2 3 3 3 2 1 2 2 1 2 2 5 9 6 7 12 10 6 8 10 13 18 18 11 6 7 9 10 13 16 15 18 26
17 16 18 18 17 20 22 18 18 20 13 4 8 9 3 3 5 5 7 5 1 1 2 5 4 2 2 3 2 1 2 3 1 1 2 2 3 1 2 1 2 4 6 6 3 2 2 2 4 2 2 3 5 1 3 3 3 0 1 2 0 3 3 2 2 1 4 8 7 7 9 7 6 8 12 16 19 21 17 8 5 8 12 14 13 15 25 33
10 7 8 6 7 14 19 18 19 18 8 4 8 7 3 2 4 8 12 8 3 3 4 4 4 4 3 3 3 3 2 4 3 2 2 2 4 3 2 2 2 2 1 2 1 2 2 2 4 2 1 1 3 4 6 6 6 3 3 3 3 3 1 2 2 2 3 7 7 8 8 6 4 5 11 17 19 21 21 12 6 8 11 12 15 21 29 31
7 4 6 6 6 10 17 17 14 10 4 4 7 7 6 5 4 6 10 10 6 5 4 3 4 5 4 4 4 2 2 2 4 4 3 4 5 5 4 4 3 1 2 1 2 2 1 2 4 6 5 5 10 10 10 14 13 8 7 7 6 6 3 4 7 5 5 6 6 8 10 6 5 6 11 16 17 17 17 12 6 6 9 13 18 21 22 22
10 4 4 7 7 11 17 13 7 5 3 4 6 6 5 6 5 5 6 8 7 5 3 3 4 4 4 5 5 3 3 3 4 5 4 6 8 7 4 5 8 7 4 2 5 7 5 3 3 8 9 11 16 15 11 13 11 6 4 5 5 5 4 6 10 7 5 7 6 9 12 6 5 8 11 13 13 14 15 11 7 10 13 15 17 18 18 19
10 8 6 7 8 16 17 7 4 6 4 4 6 6 6 5 4 4 4 5 5 3 3 2 4 5 5 5 5 4 4 5 6 7 6 4 7 10 12 11 7 5 3 3 4 4 3 2 4 8 8 9 12 10 5 4 4 3 4 5 6 7 8 10 8 5 6 9 8 10 13 6 2 6 8 9 10 12 16 14 11 13 18 20 19 20 22 22
6 11 11 9 11 17 14 5 5 7 5 6 6 8 10 7 6 8 6 4 4 3 3 3 4 6 6 5 5 6 6 6 6 7 6 4 4 3 2 6 4 0 1 2 2 3 2 2 5 6 6 7 7 7 5 1 2 3 5 6 8 9 10 10 6 3 6 11 12 13 12 7 4 4 4 6 8 9 12 16 20 19 22 26 26 27 27 26
4 7 11 11 15 16 10 5 5 5 5 8 9 10 11 8 9 15 12 7 8 6 3 4 4 4 4 3 3 4 5 6 5 5 3 4 3 5 13 14 8 4 5 8 8 4 2 2 4 6 7 8 7 7 5 2 2 2 2 6 9 10 11 9 7 7 9 12 14 13 12 9 7 5 6 7 8 9 11 20 26 23 23 24 25 27 28 28
2 2 3 5 12 15 13 10 6 2 4 6 6 7 11 10 9 12 11 9 11 10 7 7 6 3 3 3 5 6 7 7 6 5 3 3 2 3 9 10 9 7 6 10 14 6 1 1 4 9 10 10 11 11 8 7 8 7 7 8 9 10 11 9 7 10 11 11 12 12 14 15 13 11 10 7 10 11 10 13 18 20 23 24 24 25 26 27
1 1 1 1 5 8 11 11 7 3 3 4 3 3 8 10 7 6 8 7 8 9 7 6 8 7 5 5 7 7 7 8 9 7 5 3 2 4 8 5 6 9 7 7 12 6 1 2 5 11 14 12 12 14 12 11 12 12 12 12 12 12 12 11 11 12 11 9 9 9 12 15 13 11 9 10 11 9 7 8 12 17 20 23 25 27 28 28
1 2 1 0 2 3 4 6 6 4 5 6 2 2 6 8 6 4 4 2 3 4 4 4 6 8 7 8 8 6 5 7 7 4 1 2 2 4 7 3 2 8 10 6 7 4 2 3 5 10 13 9 9 12 11 11 11 11 11 12 13 15 16 16 16 16 12 11 10 10 14 16 12 7 7 9 9 8 8 9 11 16 19 22 24 26 27 29
3 4 4 2 2 2 3 5 6 4 4 6 3 3 7 10 11 8 3 2 3 2 4 6 3 1 3 4 5 5 5 5 4 2 3 2 2 1 3 3 1 7 10 6 4 1 3 4 4 7 9 9 10 11 11 11 12 12 13 12 12 14 17 17 17 16 15 17 17 16 19 17 7 3 5 6 8 7 7 9 12 15 19 21 23 25 26 28
3 3 3 4 3 4 5 5 4 3 3 5 5 5 7 9 11 8 3 4 6 4 4 4 1 3 3 3 3 2 2 2 2 2 2 1 1 1 1 2 3 6 8 5 3 3 4 4 5 7 8 10 13 13 11 11 11 12 13 13 14 16 17 17 15 15 16 17 16 16 17 11 2 4 4 6 8 8 6 9 12 14 17 19 21 24 24 25
8 5 4 5 3 3 3 2 1 1 3 4 5 4 4 5 5 5 2 2 2 1 2 3 3 2 1 1 2 1 2 5 4 3 3 1 2 3 2 3 5 7 6 3 2 3 3 3 5 7 7 8 11 13 13 12 12 14 16 17 18 18 17 16 16 14 13 12 12 13 11 5 2 3 4 5 9 9 7 8 10 12 15 17 19 20 21 22
10 9 6 3 3 3 1 1 1 2 3 2 1 2 2 1 5 5 3 1 8 10 8 7 4 2 1 2 2 2 4 5 3 5 7 6 10 12 11 12 11 8 5 3 3 3 3 3 4 6 6 7 11 13 12 10 11 13 12 12 15 16 14 14 13 9 6 4 5 7 4 2 3 4 4 6 7 8 8 9 8 10 13 16 18 19 19 19
Wind_Direction
317 319 320 323 325 327 330 333 336 336 340 341 346 352 358 8 16 22 22 19 14 9 7 5 3 359 359 354 351 349 343 340 333 327 326 348 355 325 290 257 238 234 231 235 241 240 236 229 226 217 208 205 214 213 195 191 172 155 114 130 233 201 200 195 189 202 185 258 266 283 322 286 281 291 277 273 261 258 265 263 261 260 262 264 267 270 270 270
306 308 309 312 313 315 317 318 320 321 321 321 325 327 331 339 340 348 352 353 351 347 349 347 346 345 344 343 341 339 336 333 327 323 349 13 357 351 325 271 245 239 239 242 241 236 237 237 233 222 211 209 220 210 199 199 182 169 116 151 232 204 207 202 197 207 201 249 269 287 303 285 271 285 285 273 263 265 270 268 264 263 268 268 267 271 272 271
301 303 304 305 306 307 308 308 310 309 309 309 309 311 314 316 319 324 326 329 331 330 333 333 334 333 333 334 333 334 335 331 324 314 46 6 353 358 354 318 257 243 240 239 232 228 229 228 234 228 215 215 221 209 200 194 193 199 152 188 244 217 224 236 228 229 237 258 280 293 296 276 275 282 269 260 279 278 260 265 262 258 271 279 276 274 274 273
298 299 301 302 302 303 303 302 303 302 302 301 301 303 303 305 308 309 312 314 317 319 321 323 324 324 325 326 327 330 334 331 317 167 8 350 350 353 0 359 308 257 245 241 236 234 231 223 223 221 216 223 229 220 215 203 198 191 169 205 238 191 226 248 244 249 255 264 270 279 292 284 285 281 254 259 300 280 251 264 268 265 276 287 286 280 276 274
295 296 297 298 299 298 299 298 297 297 296 296 296 297 297 299 299 301 304 305 308 310 312 314 316 317 318 319 320 324 336 340 215 162 332 335 332 324 341 345 331 282 254 244 243 241 235 223 212 209 212 228 208 197 234 213 196 183 210 232 241 188 226 258 257 266 266 266 266 272 283 285 288 280 258 245 241 264 268 274 280 281 284 287 286 283 277 273
291 292 293 294 295 295 295 294 294 293 293 293 293 293 294 294 295 297 297 299 302 304 305 307 310 312 313 314 314 316 325 308 252 285 313 318 309 300 311 321 319 297 273 249 244 238 232 219 205 203 200 224 201 195 235 213 197 227 245 240 249 237 243 266 265 271 276 270 264 268 277 284 285 282 272 240 238 270 281 281 283 286 286 285 283 279 276 272
287 288 290 291 292 292 293 292 292 292 292 292 291 291 291 291 292 293 293 295 297 298 301 302 304 306 308 309 308 308 293 270 286 294 300 304 293 291 299 307 309 296 281 261 248 235 229 216 209 206 185 246 221 210 238 217 197 228 269 246 253 248 249 265 267 269 275 271 271 274 280 280 271 276 279 248 260 279 286 286 284 287 286 282 279 276 276 274
283 285 286 288 289 290 290 291 291 291 291 291 291 291 291 292 291 291 292 292 293 295 296 297 300 301 304 305 304 302 283 283 295 293 292 294 288 294 296 299 302 295 283 272 259 240 235 223 218 212 194 233 222 210 226 230 208 212 246 253 252 253 259 271 276 275 274 273 276 276 272 270 267 272 273 262 273 282 286 287 286 287 286 280 277 276 275 275
280 281 282 284 284 286 286 287 288 288 289 289 290 290 290 291 290 291 291 290 291 291 292 295 295 296 299 297 299 295 285 292 299 292 292 290 292 295 291 294 297 293 283 270 258 241 235 231 229 224 231 241 227 226 196 212 237 210 231 253 261 265 272 279 279 277 276 272 269 259 261 270 274 282 273 265 275 284 286 287 287 285 283 280 280 280 277 276
280 281 282 283 283 284 284 284 285 286 286 287 287 287 288 287 287 288 287 288 288 287 288 289 289 290 290 288 288 281 285 293 294 292 296 293 293 291 287 291 291 287 277 267 256 247 243 243 244 236 245 255 240 230 191 197 236 239 249 268 273 273 278 277 274 276 276 271 256 222 248 268 274 291 267 268 277 281 282 283 285 281 280 283 282 282 281 279
282 282 283 283 284 284 283 284 283 284 284 284 284 285 285 284 283 283 283 283 283 283 283 282 284 282 281 280 266 261 282 289 289 291 292 291 289 285 285 285 283 280 270 265 260 260 258 249 246 233 236 242 237 224 214 223 243 280 304 298 283 285 287 274 264 271 264 268 253 219 236 273 279 250 251 271 278 274 275 281 284 281 281 285 285 285 283 283
281 282 283 283 284 284 284 284 283 284 284 284 285 284 284 283 282 281 280 280 279 279 278 277 277 274 275 271 261 267 284 286 285 287 285 285 283 281 283 280 277 274 264 262 258 259 257 246 239 232 234 227 249 252 228 236 262 286 316 309 292 314 302 274 258 262 237 245 250 201 233 284 267 240 255 272 278 271 272 277 282 282 283 286 286 287 285 288
283 284 285 285 285 285 286 286 285 286 286 286 287 285 284 283 282 281 280 281 280 278 277 275 272 271 268 265 268 276 282 280 279 279 279 280 279 278 277 275 273 268 260 255 251 251 246 243 234 232 243 238 245 261 260 300 301 287 312 266 299 330 309 273 239 243 212 219 189 157 242 261 241 257 265 275 276 271 269 272 280 283 283 285 285 285 285 287
283 284 285 285 286 286 286 286 287 287 288 289 288 287 285 284 283 283 282 282 280 278 278 275 271 270 261 263 274 278 276 276 276 275 277 277 276 275 273 272 271 266 260 251 248 250 243 239 228 230 244 243 251 267 292 329 316 293 304 205 306 298 286 297 3 143 205 235 171 159 260 247 236 263 271 278 276 270 265 267 277 280 281 284 283 283 283 283
285 286 287 286 287 287 287 288 289 291 293 293 292 291 289 288 287 285 283 280 277 275 273 271 268 265 260 268 275 278 277 275 275 277 277 273 269 269 270 270 269 262 253 244 242 244 239 226 214 221 241 247 251 273 326 338 343 356 282 281 308 216 269 306 298 211 221 243 166 167 252 256 245 256 267 279 278 265 261 264 273 277 281 283 282 283 282 282
294 295 294 294 294 294 295 297 299 301 302 302 302 300 297 295 292 289 286 280 276 270 265 265 263 254 251 274 277 276 277 276 278 280 275 271 266 262 262 263 262 254 241 236 236 236 228 209 211 221 239 250 229 109 31 349 322 338 218 256 266 244 280 313 297 251 213 187 179 204 239 266 262 250 262 276 281 269 257 264 271 274 279 280 281 281 281 282
307 308 307 307 306 304 307 308 310 311 311 313 311 308 307 304 299 293 286 280 273 264 258 256 256 247 247 266 273 275 277 280 282 279 273 270 264 257 254 248 246 240 229 227 228 220 203 193 200 226 240 249 125 109 56 310 276 286 205 235 244 244 268 291 298 297 186 157 212 241 241 253 263 267 271 275 280 281 266 266 271 272 275 277 278 280 280 281
317 318 318 317 314 313 316 317 320 320 320 325 321 319 318 314 309 301 291 283 270 257 253 236 210 225 256 253 262 274 282 285 281 278 274 267 257 252 245 238 234 221 207 209 212 193 186 187 169 189 303 263 158 135 181 230 233 237 227 247 266 249 252 257 270 296 324 206 223 258 255 256 266 276 277 272 273 280 276 272 273 272 271 273 275 276 277 278
320 323 323 322 318 319 322 324 328 328 327 331 329 326 324 321 318 307 298 283 249 230 248 216 194 204 261 256 263 274 280 280 276 272 269 263 252 240 227 222 212 192 176 170 199 183 171 146 109 134 234 229 214 177 202 226 227 233 231 242 270 269 253 247 256 262 287 292 265 262 264 264 269 269 271 272 270 271 275 276 274 272 270 270 271 271 273 274
311 316 318 319 317 318 324 327 329 332 331 330 332 334 336 339 330 309 303 285 264 262 265 251 238 246 258 266 272 274 274 272 270 265 261 258 245 221 201 189 177 180 178 158 184 182 170 167 157 194 218 224 218 198 215 238 271 280 257 254 260 267 269 260 267 269 148 294 259 254 269 272 271 271 267 271 270 262 269 276 276 273 271 269 268 269 271 273
299 301 305 309 310 314 319 322 325 332 334 332 336 347 358 359 343 309 310 297 286 279 271 270 262 254 259 265 265 266 267 268 264 259 256 249 229 204 188 172 156 184 201 149 136 147 164 185 211 216 220 220 206 200 222 254 285 269 256 270 266 252 267 263 266 276 267 179 257 250 271 274 270 274 269 269 270 257 253 263 274 278 278 273 269 269 272 275
294 294 297 300 301 307 312 317 321 329 336 333 339 355 360 350 337 316 312 294 289 288 277 273 264 255 260 263 258 257 255 262 262 253 248 231 206 198 186 168 170 194 161 131 120 167 187 214 229 226 225 132 144 164 180 221 240 251 251 271 271 254 272 269 260 280 311 211 270 274 274 272 267 267 264 260 257 257 258 255 265 274 278 276 271 268 269 273
292 295 297 297 299 304 308 314 319 327 334 333 339 352 352 347 342 329 317 278 283 289 277 269 261 255 257 257 253 251 243 243 252 249 242 219 194 198 189 163 174 169 144 185 200 202 210 233 234 230 224 237 254 191 147 231 236 224 230 254 267 255 265 268 262 306 333 248 270 287 282 275 260 257 255 256 257 264 268 264 262 263 265 269 271 270 267 269
289 294 297 298 299 302 306 310 316 324 329 333 339 345 348 346 345 336 321 277 270 280 270 266 259 254 257 255 250 246 238 235 242 249 241 218 191 189 195 171 155 159 192 209 211 220 233 243 229 213 204 209 240 244 211 255 255 221 218 230 254 253 247 253 283 334 334 292 292 304 297 283 229 232 246 258 267 268 264 264 263 261 259 261 265 269 269 270
284 291 297 299 298 301 304 306 312 319 323 329 332 337 346 346 345 342 330 295 276 269 258 259 258 255 254 253 248 237 234 237 238 243 242 222 202 188 182 176 168 204 217 213 222 241 249 251 201 160 193 202 216 239 217 219 249 253 217 214 238 250 255 263 293 342 350 308 329 12 319 297 179 185 242 273 306 272 257 255 253 255 258 259 260 266 272 276
279 285 293 295 295 297 298 303 308 313 320 323 324 334 341 343 348 346 342 326 288 268 209 227 247 250 227 236 225 188 196 259 243 231 225 219 210 201 173 172 182 226 208 195 227 251 252 241 202 175 192 186 194 244 224 200 238 277 229 209 229 241 253 262 278 320 302 259 296 72 338 288 278 175 223 244 244 256 255 246 247 252 261 269 269 270 275 282
271 275 282 284 287 289 290 295 297 306 316 314 318 328 332 341 354 349 351 334 289 218 134 176 178 137 188 181 162 147 175 275 19 211 206 204 205 202 207 193 182 246 168 137 280 246 199 207 201 191 182 160 188 246 224 177 201 268 231 189 201 213 223 225 205 217 235 274 293 164 150 274 287 244 191 214 216 252 261 253 259 266 275 281 278 276 280 286
267 267 271 274 277 281 283 286 288 300 308 306 312 316 324 341 347 355 23 297 291 109 115 180 141 91 133 166 168 153 22 342 59 160 192 197 200 193 226 215 182 209 171 155 250 254 152 180 199 175 149 168 206 227 180 155 190 257 227 153 173 191 191 162 154 193 243 345 300 221 150 242 280 269 118 164 207 242 258 256 266 279 285 283 279 282 289 294
265 264 267 268 268 272 276 277 283 296 301 304 306 303 319 337 340 18 81 250 298 80 96 182 138 82 102 144 186 220 3 18 64 145 160 189 201 187 249 219 178 208 219 194 237 268 165 196 193 159 152 209 216 213 166 164 200 244 110 79 69 77 83 111 138 140 78 321 258 203 165 210 279 275 97 81 201 231 256 260 260 269 278 277 279 290 302 313
263 262 263 261 257 259 266 269 276 286 292 299 293 288 306 317 359 36 231 245 341 42 108 151 177 234 113 111 242 269 282 323 101 139 132 145 190 193 134 208 151 175 254 258 253 259 258 129 138 169 194 204 171 118 165 173 187 106 96 45 26 31 35 58 76 90 83 280 246 189 184 191 280 285 144 172 204 210 265 283 280 283 276 277 290 302 314 326
261 259 256 253 251 254 260 264 269 273 278 281 273 264 250 356 74 194 237 258 27 283 113 139 289 79 117 115 243 258 243 268 143 145 149 98 158 185 83 97 108 70 332 297 272 279 270 197 197 215 204 170 119 96 342 136 127 109 97 56 13 333 8 31 352 57 145 261 246 188 184 182 239 259 191 254 256 224 227 264 282 289 281 294 309 312 319 321
263 260 254 249 249 251 255 260 264 268 274 273 258 236 141 100 216 218 246 8 5 268 117 163 319 97 123 60 237 226 182 248 194 144 160 129 149 186 191 196 175 350 307 257 268 316 282 225 233 243 202 179 141 116 325 2 101 126 131 141 276 312 346 351 308 100 200 255 247 187 175 196 245 256 271 278 280 265 231 230 257 266 279 297 306 308 312 307
266 263 259 253 250 250 251 255 259 262 266 260 233 157 104 219 240 215 229 293 262 283 60 95 43 91 147 48 267 236 180 220 194 158 166 124 140 247 249 212 164 208 261 222 308 316 294 279 216 127 236 196 167 174 244 261 170 163 158 161 170 187 251 262 256 265 261 265 263 187 171 257 273 275 252 250 268 282 268 246 253 259 271 286 292 294 299 296
267 265 263 259 256 254 251 252 253 256 257 240 197 121 141 232 250 95 195 241 262 346 29 81 56 11 241 219 248 210 201 246 162 142 160 105 125 266 266 236 189 180 221 230 289 225 254 288 223 171 252 189 180 199 201 148 159 184 162 146 162 174 192 221 224 249 269 280 315 262 186 220 257 265 229 227 257 282 281 266 260 262 266 274 282 285 289 289
267 266 262 259 258 256 254 251 248 251 246 220 168 147 223 237 256 274 212 238 287 311 326 40 85 15 288 257 279 241 210 254 91 113 178 175 183 215 213 217 202 173 157 218 251 171 215 267 260 250 299 172 194 243 116 103 165 225 123 119 196 195 180 220 234 215 235 300 302 245 222 222 242 275 273 262 263 267 270 270 268 267 265 268 273 275 280 285
264 264 262 260 256 252 256 252 247 247 231 200 149 221 231 237 223 198 206 204 205 193 330 342 107 189 276 273 311 314 189 219 313 88 214 209 208 220 217 222 197 181 178 194 222 185 217 268 287 318 327 157 246 311 13 106 227 221 106 185 224 180 151 232 276 235 124 263 253 237 256 274 296 288 289 299 287 276 287 284 271 268 270 270 269 270 277 290
263 261 260 258 253 250 251 247 246 242 220 191 199 229 228 233 200 192 195 167 189 128 89 294 225 192 252 263 293 302 39 235 265 139 213 242 238 204 210 247 199 189 205 211 223 215 206 282 316 89 279 310 356 316 309 51 131 121 163 227 218 147 129 150 264 317 266 252 247 239 258 276 291 283 299 321 296 286 294 293 282 282 280 274 267 271 290 320
265 264 262 259 255 249 243 239 238 229 207 181 236 236 227 227 205 185 162 157 166 87 123 235 244 202 209 237 271 262 194 210 45 134 209 255 242 170 167 252 196 191 217 205 189 251 169 307 302 134 204 304 11 358 308 1 98 143 211 262 118 187 243 170 173 238 246 252 253 233 247 259 254 263 285 292 286 285 285 271 277 287 278 272 275 290 324 339
268 271 271 266 255 242 235 232 224 211 194 184 235 233 220 215 219 209 201 197 183 172 210 232 241 262 208 200 213 251 221 194 177 254 204 233 256 170 106 272 224 214 212 168 165 283 2 303 271 158 134 342 1 340 267 312 334 14 260 304 25 185 218 218 199 213 247 259 263 248 244 239 229 253 274 279 281 287 289 279 256 257 257 268 290 324 338 339
259 263 268 256 235 229 220 214 208 198 191 223 228 232 249 239 245 229 220 218 200 206 230 225 220 237 237 212 218 250 242 199 202 224 205 232 272 277 261 283 333 337 80 105 272 311 3 277 265 292 50 324 290 231 218 247 258 246 234 243 231 214 239 277 256 221 243 259 262 258 253 233 216 243 261 269 275 282 288 292 263 247 265 296 326 334 330 328
215 234 260 218 208 210 194 190 196 195 203 242 232 241 251 254 266 244 228 226 226 229 224 199 211 224 231 243 248 236 218 215 213 208 213 230 237 256 252 200 197 240 82 78 243 197 179 240 246 273 275 260 257 243 225 233 241 237 224 215 213 217 234 271 255 220 212 242 249 256 262 246 199 218 246 260 270 276 287 297 288 274 298 317 324 319 315 318
191 214 239 195 200 194 179 179 200 204 206 225 231 243 251 258 264 255 236 225 222 235 244 225 225 225 223 243 248 216 205 228 215 207 229 233 217 226 243 201 190 191 177 212 228 207 195 170 216 253 258 255 258 259 241 228 234 249 233 208 214 211 195 233 250 247 237 250 255 256 264 258 178 204 234 251 263 275 288 304 313 306 315 323 321 323 330 337
201 225 204 167 187 195 187 189 222 208 216 244 249 253 254 258 259 254 244 220 211 226 241 232 228 234 234 234 231 215 216 223 212 218 231 238 229 227 238 249 231 189 198 258 263 235 201 176 233 251 258 260 265 276 277 197 189 260 256 219 221 226 228 240 253 272 269 266 273 266 265 274 192 213 231 251 274 286 294 313 332 333 350 8 9 8 9 5
240 249 231 190 184 196 198 205 218 214 227 243 250 251 250 249 244 249 249 208 192 200 219 227 225 234 232 221 215 213 222 229 230 238 231 227 255 241 284 320 324 325 302 329 329 308 311 260 255 267 276 278 283 290 300 338 168 233 247 239 240 238 246 262 273 281 265 255 256 263 267 270 272 284 290 286 295 294 306 349 19 23 22 25 24 25 24 19
295 270 248 219 203 213 235 250 233 234 230 234 243 244 246 250 241 245 249 236 214 205 222 251 242 241 238 239 248 233 229 233 247 268 247 227 252 50 42 27 27 29 17 33 25 339 274 258 258 263 262 262 274 274 271 284 246 240 251 244 248 242 237 252 260 248 252 247 242 252 266 265 261 278 291 293 316 327 346 19 33 33 27 22 21 23 24 21
320 289 280 242 220 230 252 260 258 250 218 232 241 233 238 246 246 241 240 240 231 221 232 249 250 275 274 250 263 258 244 232 230 247 264 266 268 30 24 28 48 40 26 31 20 8 193 261 245 245 254 256 265 273 283 300 288 287 291 266 264 265 253 255 254 247 258 261 247 247 262 268 267 270 283 316 347 353 10 28 28 25 22 20 19 21 23 23
336 264 208 321 252 244 252 264 272 269 251 255 236 225 242 245 255 247 227 228 228 220 230 238 228 234 233 226 245 255 247 236 232 238 251 276 287 322 343 19 66 35 30 30 16 23 149 297 262 254 262 260 270 285 295 302 291 287 292 285 283 286 280 273 263 261 274 275 261 261 270 275 280 289 318 357 1 3 32 35 25 26 21 18 20 21 22 22
216 283 230 76 303 260 248 275 299 313 302 294 284 295 272 257 260 256 228 256 258 214 229 246 228 231 239 246 250 243 234 238 238 231 221 24 355 323 340 352 103 34 34 31 20 49 176 272 259 260 273 277 292 300 298 298 295 289 290 286 282 281 277 272 268 271 277 272 272 283 282 280 291 322 5 20 0 0 34 34 30 32 23 21 24 22 20 19
242 282 288 314 309 294 310 320 337 344 300 286 284 275 269 264 264 260 239 303 296 223 226 244 247 306 307 297 270 237 233 249 248 169 124 62 358 322 343 319 285 35 27 7 359 100 218 261 260 267 289 298 293 287 283 286 288 286 285 282 281 278 274 273 275 276 272 268 272 277 276 277 291 19 20 14 3 8 37 34 30 30 24 22 22 18 16 14
263 282 315 336 315 288 294 294 311 342 291 262 251 248 252 255 264 270 250 244 256 243 226 224 72 27 356 1 355 278 282 330 6 51 87 81 24 77 17 284 295 355 356 340 320 264 247 280 304 301 298 292 285 280 277 277 277 282 283 278 273 272 272 275 277 272 268 269 272 274 274 277 38 57 344 349 3 8 26 30 29 27 21 21 20 15 12 8
253 264 311 334 305 269 275 286 291 283 255 234 226 250 261 247 278 313 312 281 305 56 99 95 64 23 335 350 344 316 33 48 54 27 15 21 287 293 295 282 303 325 325 293 263 285 283 287 306 303 284 275 282 284 286 291 291 285 279 274 271 268 267 267 263 263 269 275 280 281 279 284 34 14 334 346 359 4 12 16 19 18 16 17 15 8 5 2
253 262 275 284 286 275 269 0 329 239 239 245 247 295 278 293 9 2 303 30 79 82 64 46 36 18 0 309 325 49 38 16 347 304 304 281 264 263 256 252 258 262 272 289 274 242 245 259 282 286 279 277 279 282 294 305 293 278 268 264 266 267 268 265 264 278 308 310 287 286 294 333 329 332 351 354 359 5 351 343 354 6 7 8 4 358 354 352